sat.trackr.live / text

‹ back to catalog

STARLINK-32267

NORAD 60363 · 2024-138J

PAYLOAD ACTIVE UNKNOWN

§ Identity

Operator
Country
US
Launch date
2024-08-04
Launch site
AFWTR
Launch vehicle
Mass (kg)
RCS (m²)

Purposes: comms

External: N2YO · Heavens-Above · Gunter

§ Orbital elements

Epoch: 2026-09-21T21:19:31.331712Z

Period
93.85 min
Inclination
53.1595°
Eccentricity
0.0001261
Mean motion
15.34391071 rev/d
Perigee alt
461.9 km
Apogee alt
463.6 km
Semi-major
6,840.9 km
B*
1.4142e-5
RAAN
117.0664°
Arg perigee
94.6748°
Mean anomaly
265.4398°
Rev number
12,068

§ Raw data

STARLINK-322671 60363U 24138J   26264.88855708  .00000101  00000+0  14142-4 0  99922 60363  53.1595 117.0664 0001261  94.6748 265.4398 15.34391071120689

JSON: /api/v1/satellites/60363 · /tle

For live sub-satellite position, see the globe view (requires WebGL).

§ Visibility from observer

Set your observer location to see the next 7 days of passes ≥ 10°. The values pass through the URL so the page stays shareable.

No JS? Fill the form by hand. The geolocation button needs JavaScript.